GW5812 Weather Reports


time (UTC)temp
C
wind
direction
speed
KPH
gust
KPH
rain 1hr
cm
rain 24hr
cm
rain mn
cm
humidity
%
barometer
mb
20260508002028 15 225 8.0 11.3 0.00 0.00 0.00 41 1030.3
20260508001028 15 248 1.6 3.2 0.00 0.00 0.00 42 1030.0
20260508000026 16 45 1.6 3.2 0.00 0.00 0.00 43 1029.7
20260507235026 16 203 6.4 11.3 0.00 0.00 0.00 49 1029.7
20260507234028 16 270 4.8 8.0 0.00 0.00 0.00 68 1029.7
20260507233026 17 293 3.2 4.8 0.00 0.00 0.00 64 1029.4
20260507232026 17 180 6.4 9.7 0.00 0.00 0.00 65 1029.2
20260507231028 17 180 3.2 4.8 0.00 0.00 0.00 68 1029.0
20260507230026 17 293 3.2 3.2 0.00 0.00 0.00 63 1028.9
20260507225026 18 225 4.8 6.4 0.00 0.00 0.00 60 1028.7
20260507224026 17 203 4.8 6.4 0.00 0.00 0.00 61 1028.6
20260507223026 18 248 4.8 6.4 0.00 0.00 0.00 60 1028.6
20260507222026 18 270 6.4 8.0 0.00 0.00 0.00 60 1028.4
20260507221026 18 248 8.0 8.0 0.00 0.00 0.00 58 1028.3
20260507220026 19 203 4.8 8.0 0.00 0.00 0.00 57 1028.1
20260507215028 18 248 4.8 6.4 0.00 0.00 0.00 58 1028.0
20260507214026 18 293 3.2 3.2 0.00 0.00 0.00 59 1028.1
20260507213026 18 225 6.4 8.0 0.00 0.00 0.00 59 1028.3
20260507212028 18 293 8.0 12.9 0.00 0.00 0.00 57 1028.1
20260507211025 17 248 9.7 11.3 0.00 0.00 0.00 60 1028.1
20260507210026 18 113 3.2 8.0 0.00 0.00 0.00 55 1028.0
20260507205026 17 203 4.8 4.8 0.00 0.00 0.00 60 1028.1
20260507204026 18 248 8.0 11.3 0.00 0.00 0.00 58 1028.1
20260507203030 19 270 3.2 3.2 0.00 0.00 0.00 54 1028.2
20260507202026 18 158 9.7 11.3 0.00 0.00 0.00 58 1028.1
20260507201026 19 203 14.5 16.1 0.00 0.00 0.00 55 1028.2
20260507200026 18 203 4.8 8.0 0.00 0.00 0.00 57 1028.4
20260507195026 17 225 4.8 4.8 0.00 0.00 0.00 60 1028.5
20260507194025 17 225 8.0 11.3 0.00 0.00 0.00 58 1028.6
20260507193026 17 225 9.7 11.3 0.00 0.00 0.00 57 1028.8
20260507192026 16 248 6.4 9.7 0.00 0.00 0.00 61 1029.1
20260507191030 16 158 8.0 9.7 0.00 0.00 0.00 63 1029.1
20260507190026 16 113 6.4 8.0 0.00 0.00 0.00 60 1029.2
20260507185025 16 90 6.4 8.0 0.00 0.00 0.00 61 1029.3
20260507184025 16 225 6.4 8.0 0.00 0.00 0.00 60 1029.3
20260507183026 16 45 3.2 4.8 0.00 0.00 0.00 59 1029.3
20260507182025 16 113 4.8 6.4 0.00 0.00 0.00 60 1029.4
20260507181028 16 225 6.4 8.0 0.00 0.00 0.00 61 1029.5
20260507180026 16 338 6.4 9.7 0.00 0.00 0.00 60 1029.7
20260507175026 16 180 9.7 11.3 0.00 0.00 0.00 63 1029.8
20260507174026 15 225 4.8 6.4 0.00 0.00 0.00 65 1029.9
20260507173026 14 158 3.2 3.2 0.00 0.00 0.00 67 1030.2
20260507172026 14 135 4.8 6.4 0.00 0.00 0.00 67 1030.3
20260507171028 14 68 6.4 8.0 0.00 0.00 0.00 66 1030.4
20260507170026 15 270 4.8 4.8 0.00 0.00 0.00 61 1030.6
20260507165026 14 68 11.3 12.9 0.00 0.00 0.00 67 1030.7
20260507164026 15 90 0.0 1.6 0.00 0.00 0.00 61 1030.8
20260507163025 14 158 0.0 1.6 0.00 0.00 0.00 64 1031.0
20260507162025 13 68 11.3 12.9 0.00 0.00 0.00 68 1031.1
20260507161026 13 23 6.4 8.0 0.00 0.00 0.00 69 1031.2
20260507160026 13 23 6.4 11.3 0.00 0.00 0.00 67 1031.4
20260507155026 13 315 8.0 9.7 0.00 0.00 0.00 67 1031.7
20260507154026 12 68 9.7 14.5 0.00 0.00 0.00 69 1031.8
20260507153026 12 45 4.8 8.0 0.00 0.00 0.00 69 1031.7
20260507152030 12 68 4.8 9.7 0.00 0.00 0.00 71 1031.8
20260507151028 12 68 6.4 8.0 0.00 0.00 0.00 72 1031.8
20260507150026 12 23 9.7 9.7 0.00 0.00 0.00 73 1031.8
20260507145028 11 45 9.7 11.3 0.00 0.00 0.00 73 1031.9
20260507144026 11 45 8.0 9.7 0.00 0.00 0.00 76 1032.0
20260507143026 11 68 8.0 11.3 0.00 0.00 0.00 78 1032.2
20260507142026 11 113 11.3 16.1 0.00 0.00 0.00 78 1032.3
20260507141028 11 45 8.0 11.3 0.00 0.00 0.00 78 1032.4
20260507140026 11 68 11.3 16.1 0.00 0.00 0.00 78 1032.5
20260507135026 12 68 8.0 11.3 0.00 0.00 0.00 77 1032.5
20260507134026 11 23 6.4 8.0 0.00 0.00 0.00 78 1032.5
20260507133028 11 360 9.7 14.5 0.00 0.00 0.00 77 1032.5
20260507132026 11 45 8.0 9.7 0.00 0.00 0.00 78 1032.6
20260507131025 11 68 9.7 11.3 0.00 0.00 0.00 80 1032.6
20260507130026 11 360 6.4 8.0 0.00 0.00 0.00 78 1032.6
20260507125030 11 90 6.4 8.0 0.00 0.00 0.00 81 1032.8
20260507124026 11 45 4.8 6.4 0.00 0.00 0.00 79 1032.6
20260507123026 11 23 14.5 16.1 0.00 0.00 0.00 80 1032.7
20260507122026 11 45 11.3 12.9 0.00 0.00 0.00 80 1032.6
20260507121025 11 68 9.7 11.3 0.00 0.00 0.00 81 1032.4
20260507120026 11 360 6.4 8.0 0.00 0.00 0.00 80 1032.2
20260507115026 11 338 4.8 8.0 0.00 0.00 0.00 79 1032.1
20260507114026 11 158 8.0 8.0 0.00 0.00 0.00 79 1032.2
20260507113026 11 68 11.3 11.3 0.00 0.00 0.00 78 1032.0
20260507112026 11 45 6.4 8.0 0.00 0.00 0.00 80 1032.0
20260507111026 11 338 4.8 4.8 0.00 0.00 0.00 80 1032.0
20260507110027 11 90 4.8 8.0 0.00 0.00 0.00 81 1031.9
20260507105026 11 360 11.3 14.5 0.00 0.00 0.00 81 1031.6
20260507104026 11 23 9.7 11.3 0.00 0.00 0.00 83 1031.7
20260507103026 11 23 12.9 17.7 0.00 0.00 0.00 83 1031.4
20260507102026 11 23 8.0 11.3 0.00 0.00 0.00 83 1031.7
20260507101028 11 45 8.0 11.3 0.00 0.00 0.00 85 1031.6
20260507100032 11 23 11.3 14.5 0.00 0.00 0.00 84 1031.8
20260507095026 11 45 9.7 11.3 0.00 0.00 0.00 83 1031.6
20260507094026 11 315 9.7 11.3 0.00 0.00 0.00 83 1031.5
20260507093026 11 45 4.8 6.4 0.00 0.00 0.00 83 1031.4
20260507092026 11 360 9.7 16.1 0.00 0.00 0.00 82 1031.3
20260507091026 11 68 14.5 16.1 0.00 0.00 0.00 83 1031.4
20260507090027 11 23 4.8 6.4 0.00 0.00 0.00 85 1031.3
20260507085025 11 45 11.3 16.1 0.00 0.00 0.00 85 1031.4
20260507084026 11 23 8.0 12.9 0.00 0.00 0.00 84 1031.2
20260507083026 11 23 11.3 14.5 0.00 0.00 0.00 84 1030.8
20260507082030 11 68 24.1 27.4 0.00 0.00 0.00 83 1031.1
20260507081026 12 45 9.7 11.3 0.00 0.00 0.00 85 1031.2
20260507080026 12 315 8.0 11.3 0.00 0.00 0.00 85 1031.4
20260507075026 12 45 11.3 11.3 0.00 0.00 0.00 84 1031.2
20260507074027 12 68 12.9 16.1 0.00 0.00 0.00 85 1031.2
20260507073026 12 23 8.0 8.0 0.00 0.00 0.00 86 1031.2
20260507072026 12 23 9.7 11.3 0.00 0.00 0.00 90 1031.0
20260507071026 12 68 20.9 24.1 0.00 0.00 0.00 88 1030.5
20260507070026 13 45 14.5 16.1 0.00 0.00 0.00 89 1030.7
20260507065026 13 45 19.3 22.5 0.00 0.00 0.00 89 1030.7
20260507064026 13 68 11.3 17.7 0.00 0.00 0.00 89 1030.5
20260507063028 13 45 16.1 24.1 0.00 0.00 0.00 89 1031.0
20260507062026 13 68 8.0 11.3 0.00 0.00 0.00 90 1030.9
20260507061026 13 45 11.3 14.5 0.00 0.00 0.00 89 1030.7
20260507060026 13 68 9.7 16.1 0.00 0.00 0.00 90 1030.7
20260507055026 13 45 14.5 16.1 0.00 0.00 0.00 91 1031.0
20260507054028 13 45 17.7 20.9 0.00 0.00 0.00 90 1030.9
20260507053026 14 45 9.7 11.3 0.00 0.00 0.00 90 1031.3
20260507052028 14 68 11.3 11.3 0.00 0.00 0.00 90 1030.7
20260507051026 15 45 8.0 11.3 0.00 0.00 0.00 91 1030.8
20260507050026 15 360 9.7 12.9 0.00 0.00 0.00 92 1030.5
20260507045026 15 23 8.0 8.0 0.00 0.00 0.00 92 1030.3
20260507044026 15 360 1.6 3.2 0.00 0.00 0.00 92 1030.1
20260507043026 15 360 8.0 9.7 0.00 0.00 0.00 91 1029.6
20260507042028 15 90 16.1 20.9 0.00 0.00 0.00 91 1029.1
20260507041028 16 23 8.0 12.9 0.00 0.00 0.00 91 1029.8
20260507040029 -17 0.0 0.0 0.00 0.00 0.00 1030.2
20260507035026 16 23 4.8 6.4 0.00 0.00 0.00 89 1030.8
20260507034026 17 23 6.4 8.0 0.00 0.00 0.00 86 1030.9
20260507033025 17 23 8.0 11.3 0.00 0.00 0.00 83 1030.8
20260507032026 17 23 4.8 8.0 0.00 0.00 0.00 83 1030.7
20260507031028 17 45 4.8 6.4 0.00 0.00 0.00 83 1030.3
20260507030027 17 360 9.7 11.3 0.00 0.00 0.00 83 1030.2
20260507025026 17 45 11.3 12.9 0.00 0.00 0.00 83 1030.1
20260507024026 17 45 6.4 8.0 0.00 0.00 0.00 82 1030.5
20260507023025 17 45 0.0 1.6 0.00 0.00 0.00 83 1030.3
20260507022026 17 293 3.2 4.8 0.00 0.00 0.00 84 1030.0
20260507021025 17 270 3.2 4.8 0.00 0.00 0.00 85 1030.0
20260507020026 18 360 4.8 4.8 0.00 0.00 0.00 86 1029.8
20260507015028 18 90 6.4 8.0 0.00 0.00 0.00 85 1029.9
20260507014026 18 68 4.8 8.0 0.00 0.00 0.00 84 1029.5
20260507013026 18 45 4.8 6.4 0.00 0.00 0.00 85 1029.4
20260507012025 18 113 9.7 11.3 0.00 0.00 0.00 85 1029.0
20260507010026 18 360 11.3 12.9 0.00 0.00 0.00 82 1029.6
20260507005026 19 90 12.9 20.9 0.00 0.00 0.00 82 1029.6
20260507004026 19 360 3.2 3.2 0.00 0.00 0.00 85 1029.8
20260507003026 20 23 6.4 6.4 0.00 0.00 0.00 82 1029.7